WZZ571 ENGM-EPKK

Flight info

Callsign WZZ571
Flight time N/A
Altitude 36000
Route OKSAT L996 KELIN DCT NEXIL DCT ROE DCT AMROR N983 POLON N133 NEGUV M66 KUKAM
Aircraft A20N/M-SDE2E3FGHIRWXY/LB1

Departure

Time 2026-05-04 09:17
Airport Oslo-Gardermoen International Airport (ENGM)

Arrival

Time N/A
Airport Kraków John Paul II International Airport (EPKK)
Time Latitude Longitude Altitude Speed Heading
2026-05-04 08:54 60.19720 11.10009 685 ft 0 kts 106°
2026-05-04 09:07 60.19724 11.09831 681 ft 3 kts 69°
2026-05-04 09:08 60.19714 11.09789 678 ft 3 kts 51°
2026-05-04 09:08 60.19697 11.09759 678 ft 3 kts 19°
2026-05-04 09:08 60.19694 11.09757 684 ft 0 kts 17°
2026-05-04 09:11 60.19705 11.09745 684 ft 4 kts 305°
2026-05-04 09:11 60.19723 11.09621 683 ft 13 kts 282°
2026-05-04 09:12 60.19750 11.09422 683 ft 16 kts 287°
2026-05-04 09:12 60.19784 11.09203 680 ft 17 kts 286°
2026-05-04 09:14 60.19484 11.08504 677 ft 19 kts 196°
2026-05-04 09:14 60.19338 11.08422 675 ft 21 kts 194°
2026-05-04 09:14 60.19233 11.08335 673 ft 15 kts 233°
2026-05-04 09:14 60.19246 11.08141 672 ft 15 kts 285°
2026-05-04 09:15 60.19274 11.07937 671 ft 13 kts 284°
2026-05-04 09:15 60.19330 11.07850 672 ft 8 kts 12°
2026-05-04 09:15 60.19358 11.07870 672 ft 0 kts 16°
2026-05-04 09:17 60.24773 11.11009 2284 ft 189 kts
2026-05-04 09:18 60.26145 11.11583 2448 ft 215 kts
2026-05-04 09:18 60.27680 11.11369 2761 ft 232 kts 346°
2026-05-04 09:18 60.29377 11.11566 3278 ft 261 kts 14°
2026-05-04 09:18 60.30931 11.13581 4205 ft 273 kts 44°
2026-05-04 09:19 60.31881 11.16898 5258 ft 278 kts 70°
2026-05-04 09:19 60.32363 11.20688 6139 ft 286 kts 75°
2026-05-04 09:19 60.32872 11.24595 7021 ft 290 kts 71°
2026-05-04 09:19 60.33554 11.28461 7869 ft 295 kts 65°
2026-05-04 09:20 60.34386 11.32283 8753 ft 300 kts 62°
2026-05-04 09:20 60.35314 11.36109 9601 ft 306 kts 61°
2026-05-04 09:20 60.36301 11.40016 10176 ft 322 kts 60°
2026-05-04 09:20 60.37272 11.44287 10421 ft 348 kts 72°
2026-05-04 09:21 60.37535 11.49268 10825 ft 365 kts 96°
2026-05-04 09:21 60.36880 11.54215 11479 ft 367 kts 120°
2026-05-04 09:21 60.35412 11.58368 12226 ft 362 kts 142°
2026-05-04 09:21 60.33363 11.61152 12985 ft 352 kts 164°
2026-05-04 09:22 60.31058 11.62226 13719 ft 340 kts 186°
2026-05-04 09:22 60.28740 11.61809 14431 ft 334 kts 195°
2026-05-04 09:22 60.26422 11.61187 15160 ft 339 kts 193°
2026-05-04 09:22 60.24035 11.60955 15844 ft 347 kts 187°
2026-05-04 09:23 60.21587 11.61134 16497 ft 356 kts 184°
2026-05-04 09:23 60.19104 11.61583 17205 ft 361 kts 182°
2026-05-04 09:23 60.16596 11.62160 17911 ft 365 kts 181°
2026-05-04 09:23 60.14065 11.62781 18508 ft 368 kts 181°
2026-05-04 09:25 59.95944 11.67113 22793 ft 384 kts 181°
2026-05-04 09:25 59.93284 11.67736 23299 ft 387 kts 181°
2026-05-04 09:26 59.90598 11.68363 23740 ft 391 kts 181°
2026-05-04 09:26 59.87924 11.68990 24225 ft 393 kts 181°
2026-05-04 09:26 59.85201 11.69626 24692 ft 396 kts 181°
2026-05-04 09:26 59.82455 11.70267 25148 ft 399 kts 181°
2026-05-04 09:27 59.79693 11.70910 25589 ft 401 kts 181°
2026-05-04 09:27 59.76910 11.71556 26007 ft 404 kts 181°
2026-05-04 09:27 59.74109 11.72206 26423 ft 407 kts 181°
2026-05-04 09:27 59.71289 11.72859 26835 ft 409 kts 181°
2026-05-04 09:28 59.68450 11.73515 27242 ft 412 kts 181°
2026-05-04 09:28 59.65595 11.74174 27636 ft 414 kts 181°
2026-05-04 09:28 59.62757 11.74826 27893 ft 419 kts 181°
2026-05-04 09:28 59.59850 11.75492 28203 ft 422 kts 180°
2026-05-04 09:29 59.56925 11.76165 28581 ft 424 kts 180°
2026-05-04 09:29 59.53990 11.76839 28923 ft 426 kts 180°
2026-05-04 09:29 59.51039 11.77515 29328 ft 427 kts 180°
2026-05-04 09:29 59.48083 11.78192 29728 ft 428 kts 180°
2026-05-04 09:30 59.45117 11.78867 29987 ft 431 kts 180°
2026-05-04 09:30 59.42128 11.79547 30259 ft 433 kts 180°
2026-05-04 09:30 59.39129 11.80227 30541 ft 435 kts 180°
2026-05-04 09:30 59.36149 11.80903 30813 ft 437 kts 180°
2026-05-04 09:31 59.33120 11.81588 31061 ft 439 kts 180°
2026-05-04 09:31 59.30080 11.82274 31349 ft 441 kts 180°
2026-05-04 09:31 59.27032 11.82963 31729 ft 440 kts 180°
2026-05-04 09:31 59.23993 11.83650 32084 ft 440 kts 180°
2026-05-04 09:32 59.20951 11.84335 32431 ft 440 kts 180°
2026-05-04 09:32 59.17911 11.85017 32775 ft 440 kts 180°
2026-05-04 09:34 58.96694 11.89738 34616 ft 440 kts 180°
2026-05-04 09:34 58.93655 11.90410 34849 ft 440 kts 180°
2026-05-04 09:34 58.90613 11.91081 35056 ft 440 kts 180°
2026-05-04 09:34 58.87566 11.91752 35257 ft 441 kts 180°
2026-05-04 09:35 58.84557 11.92413 35465 ft 441 kts 180°
2026-05-04 09:35 58.81508 11.93082 35674 ft 441 kts 179°
2026-05-04 09:35 58.78460 11.93750 35868 ft 441 kts 179°
2026-05-04 09:35 58.75410 11.94417 36041 ft 441 kts 179°
2026-05-04 09:37 58.54041 11.99060 36782 ft 442 kts 179°
2026-05-04 09:37 58.50987 11.99719 36783 ft 442 kts 179°
2026-05-04 09:38 58.44882 12.01031 36778 ft 442 kts 179°
2026-05-04 09:38 58.38769 12.02341 36790 ft 442 kts 179°
2026-05-04 09:39 58.32694 12.03639 36785 ft 442 kts 179°
2026-05-04 09:39 58.26593 12.05296 36786 ft 446 kts 173°
2026-05-04 09:40 58.20627 12.08873 36790 ft 454 kts 162°
2026-05-04 09:40 58.14910 12.14126 36789 ft 457 kts 159°
2026-05-04 09:42 57.92095 12.35245 36799 ft 457 kts 160°
2026-05-04 09:43 57.86373 12.40473 36774 ft 457 kts 160°
2026-05-04 09:43 57.80696 12.45642 36806 ft 457 kts 160°
2026-05-04 09:44 57.74978 12.50831 36806 ft 457 kts 160°
2026-05-04 09:46 57.52118 12.71391 36810 ft 456 kts 160°
2026-05-04 09:46 57.46400 12.76489 36840 ft 456 kts 160°
2026-05-04 09:47 57.40682 12.81570 36834 ft 455 kts 160°
2026-05-04 09:49 57.17889 13.01646 36836 ft 454 kts 160°
2026-05-04 09:51 56.97989 13.18951 36850 ft 452 kts 160°
2026-05-04 09:51 56.92307 13.23854 36840 ft 451 kts 160°
2026-05-04 09:52 56.86628 13.28738 36844 ft 451 kts 160°
2026-05-04 09:52 56.80995 13.33567 36842 ft 450 kts 160°
2026-05-04 09:53 56.75325 13.38410 36849 ft 450 kts 160°
2026-05-04 09:53 56.69654 13.43239 36843 ft 450 kts 160°
2026-05-04 09:54 56.63979 13.48054 36814 ft 449 kts 160°
2026-05-04 09:54 56.58363 13.52805 36855 ft 449 kts 161°
2026-05-04 09:55 56.52699 13.57580 36855 ft 449 kts 161°
2026-05-04 09:55 56.47030 13.62343 36857 ft 449 kts 161°
2026-05-04 09:56 56.41363 13.67088 36852 ft 449 kts 161°
2026-05-04 09:56 56.35730 13.71793 36846 ft 449 kts 161°
2026-05-04 09:57 56.30059 13.76517 36843 ft 449 kts 161°
2026-05-04 09:57 56.24389 13.81230 36849 ft 449 kts 161°
2026-05-04 09:58 56.18716 13.85936 36849 ft 449 kts 161°
2026-05-04 09:58 56.13044 13.90623 36860 ft 449 kts 161°
2026-05-04 10:00 55.90476 14.09120 36865 ft 445 kts 161°
2026-05-04 10:04 55.51353 14.40630 36864 ft 440 kts 162°
2026-05-04 10:04 55.45776 14.45065 36865 ft 440 kts 162°
2026-05-04 10:05 55.40247 14.49449 36879 ft 438 kts 162°
2026-05-04 10:05 55.34687 14.53843 36858 ft 437 kts 162°
2026-05-04 10:06 55.29151 14.58206 36894 ft 436 kts 162°
2026-05-04 10:06 55.23604 14.62562 36900 ft 436 kts 162°
2026-05-04 10:08 55.07207 14.76371 36909 ft 445 kts 150°
2026-05-04 10:08 55.04761 14.79727 36908 ft 451 kts 144°
2026-05-04 10:08 55.00395 14.87702 36905 ft 457 kts 137°
2026-05-04 10:09 54.96193 14.95894 36908 ft 456 kts 138°
2026-05-04 10:09 54.91943 15.04082 36914 ft 456 kts 138°
2026-05-04 10:10 54.87676 15.12255 36918 ft 457 kts 138°
2026-05-04 10:10 54.83401 15.20410 36916 ft 457 kts 139°
2026-05-04 10:11 54.79150 15.28493 36930 ft 456 kts 138°
2026-05-04 10:11 54.74867 15.36612 36914 ft 457 kts 138°
2026-05-04 10:12 54.70577 15.44715 36917 ft 457 kts 139°
2026-05-04 10:12 54.66272 15.52822 36930 ft 458 kts 139°
2026-05-04 10:13 54.61990 15.60856 36933 ft 458 kts 139°
2026-05-04 10:13 54.57431 15.68436 36935 ft 454 kts 144°
2026-05-04 10:14 54.52749 15.75727 36944 ft 454 kts 144°
2026-05-04 10:16 54.34796 16.03562 36954 ft 455 kts 144°
2026-05-04 10:16 54.30084 16.10811 36946 ft 455 kts 144°
2026-05-04 10:17 54.24601 16.19214 36927 ft 455 kts 144°
2026-05-04 10:19 54.06462 16.46800 36941 ft 457 kts 144°
2026-05-04 10:19 54.00926 16.55153 36928 ft 458 kts 144°
2026-05-04 10:20 53.96962 16.61114 36938 ft 458 kts 144°
2026-05-04 10:20 53.92180 16.68284 36942 ft 459 kts 144°
2026-05-04 10:21 53.87385 16.75452 36953 ft 460 kts 144°
2026-05-04 10:21 53.82582 16.82609 36950 ft 460 kts 144°